Погода в Дашогузе

Погода в Дашогузе : погода сейчас, прогноз погоды и архив. Всё, что Вы хотите узнать о погоде в Дашогузе!

Поиск расширенной информации на нашем сайте:

Полезная информация:

Другие новости

Новости СМИ2

Главная страница сайта

Новости сайта

03.07.2017

Напоминаем, что на нашем специализированном сайте Метеоцентр.Азия вы можете получить высокодетализированные автоматические прогнозы погоды по пунктам России, СНГ и мира в авиационном формате (включающие направление и скорость ветра, видимость, явления погоды, количество и форму облачности, нижнюю и верхнюю границу облачности).

Рекомендуем:

Погода в Дашогузе - сегодня

Время (UTC), дата Ветер
(°,м/с) 
Видим.   Явления Облачность Т
(°С)
Тd
(°С)
f(%) Тe
(°С)
Pmin
(гПа)
dP
(гПа)
Po
(мм)
O2
(г/м3)
Тmin Tmax R s Состояние
почвы
00 16.07.19 020 (С) 10 км    3/0 верхняя 
[Ci fib]
+25.8 +13.1 45 +32  1002.2  745  272           
03 16.07.19 010 (С) 10 км    3/0 средняя 
[Ac cast]
+27 +13.7 44 +34  1003.2  745  271  +25.6        сухая 
06 16.07.19 030 (СВ) 10 км    5/0 средняя 
[Ac cuf]
+33.8 +14.6 32 +42  1003.2  0.2  746  264  +25.6         
09 16.07.19 030 (СВ) 10 км    3/0 средняя 
[Ac lent]
+38.6 +15.1 25 +48  1002  -1.1  745  260           
12 16.07.19 020 (С) 10 км    3/0 средняя 
[Ac lent]
+41.2 +15.3 22 +51  1000.5  -1.5  744  257           
15 16.07.19 340 (С) 10 км    3/0 верхняя 
[Ci fib]
+37 +16.7 30 +49  1000.9  0.4  744  260    +41.5       
18 16.07.19 020 (С) 10 км    3/0 верхняя 
[Ci fib]
+31.8 +14.1 34 +39  1001.2  0.2  744  266    +41.5       
21 16.07.19 010 (С) 10 км    ясно 
+29.6 +14.5 40 +38  1001.7  0.4  744  268           
00 17.07.19 060 (СВ) 10 км    ясно 
+27 +13.9 45 +34  1001.7  -0.1  744  270           
03 17.07.19 090 (В) 10 км    3/0 верхняя 
[Ci fib]
+31.7 +13.2 32 +38  1002.3  0.8  745  266  +26.7        сухая 
06 17.07.19 100 (В) 10 км    3/0 верхняя 
[Ci fib]
+36.3 +15.9 30 +47  1003.2  746  262  +26.7         
09 17.07.19 120 (ЮВ) 10 км    3/0 верхняя 
[Ci fib]
+41.2 +16.4 24 +53  1002.2  -0.9  745  257           
12 17.07.19 100 (В) 10 км    3/0 верхняя 
[Ci sp]
+44 +14.7 18 +52  1001.4  -0.7  744  255           
15 17.07.19 030 (СВ) 10 км    4/0 верхняя 
[Ci fib]
+40 +14 22 +47  1001.7  0.2  745  259    +44.2       
18 17.07.19 030 (СВ) 10 км    3/0 верхняя 
[Ci fib]
+32.8 +16.4 37 +44  1002.6  0.7  745  265    +44.2       
21 17.07.19 110 (В) 10 км    3/0 верхняя 
[Ci fib]
+29.8 +12.7 35 +35  1002.7  745  268           
00 18.07.19 100 (В) 10 км    3/0 верхняя 
[Ci fib]
+27.7 +10 33 +29  1002.9  0.1  745  271           
03 18.07.19 110 (В) 10 км    ясно 
+31.3 +11.4 29 +34  1004.1  1.2  746  268  +26.5        сухая 
06 18.07.19 140 (ЮВ) 10 км    ясно 
+37.2 +15.4 28 +47  1004.6  0.9  747  262  +26.5         
09 18.07.19 100 (В) 10 км    ясно 
+41.6 +13.7 20 +48  1003.9  -0.6  746  258           
12 18.07.19 070 (В) 10 км    3/0 верхняя 
[Ci ing]
+42.5 +15.1 20 +52  1002.9  -1  745  257           
15 18.07.19 210 (ЮЗ) 10 км    8/0 верхняя 
[Ci ing]
+40.4 +19.3 30 +58  1002.6  -0.3  745  257    +43.7       
18 18.07.19 020 (С) 10 км    5/0 верхняя 
[Ci fib]
+34.2 +16.2 34 +45  1003.4  0.6  746  264    +43.7       
21 18.07.19 060 (СВ) 10 км    5/0 верхняя 
[Ci fib]
+31.8 +15 36 +41  1002.8  -0.6  745  266           
00 19.07.19 100 (В) 10 км    5/0 верхняя 
[Ci fib]
+29 +14.1 40 +36  1003.7  0.7  746  269           
Время (UTC), дата Ветер
(°,м/с) 
Видим.   Явления Облачность Т
(°С)
Тd
(°С)
f(%) Тe
(°С)
Pmin
(гПа)
dP
(гПа)
Po
(мм)
O2
(г/м3)
Тmin Tmax R s Состояние
почвы

Для получения пояснительной информации подведите курсор к названию столбца.

ПОГОДА в Дашогузе - архив

Всё, что Вы хотите узнать о погоде в Дашогузе - удобно и подробно!

Выберите нужную дату (начиная с 1 января 2018* года) и нажмите кнопку "Найти".
Будут отображены архивные сводки погоды по пункту Дашогуз, начиная с указанной даты.


Отображать данные в формате CSV (для использования в таблицах Excel)


Внимание! Наш архив погоды предназначен исключительно для личного некоммерческого использования в познавательных целях. Если Вам необходимы официальные справки о состоянии погоды (для производственных, юридических, коммерческих и т.п. целей), обращайтесь в органы Росгидромета.

*Примечание: данная дата относится к архиву по метеостанциям СССР (Россия, СНГ, Балтия).
Архив по метеостанциям Зарубежной Европы и Азии (кроме Китая) хранится 10 дней, по другим регионам земного шара (Китай, Африка, Америка, Австралия, Океания) - 1 день.

Дашогуз - район местоположения метеостанции


Название, широта, долгота, высота метеостанции:
Дашогуз (Ташауз) 41.8°ш. 59.8°д. 82 м над ур. моря [Туркменистан]

Дополнительная информация

В oтличие oт бoльшинства пoгoдных сайтoв мы публикуем пoдрoбную метеoинфoрмацию в детальнoм прoфессиoнальнoм фoрмате.

Характеристики температуры и влажнoсти вoздуха измеряются на высoте 2 м в тени вдали oт зданий и деревьев.
Скoрoсть ветра измеряется на высoте 10 м (на урoвне рoста челoвека скoрoсть ветра ниже в 1.5-2 раза). Если метеoстанция нахoдится в гoрoде или в лесу, тo скoрoсть ветра занижена на 2-4 м/с пo сравнению с oткрытым местoм. Скoрoсть ветра над акватoриями крупных рек и oзёр, а также на вершинах хoлмoв на 2-5 м/с выше, чем в oбычных услoвиях.
Атмoсфернoе давление в разных тoчках местнoсти мoжет значительнo oтличаться oт давления на метеoстанции, в зависимoсти oт услoвий рельефа (при пoдъёме на 10 м давление пoнижается примернo на 1 мм рт.ст.).